Wind_Speed
31 32 29 27 29 26 26 25 23 22 27 29 31 40 35 34 27 23 22 20 20 12 11 11 10 12 15 14 14 13 14 15
34 34 34 32 34 34 26 24 26 22 23 27 31 43 37 34 28 25 24 21 17 13 12 13 12 16 17 13 12 14 17 17
23 31 39 26 35 31 28 26 26 22 26 27 39 47 41 38 27 27 24 21 17 14 13 13 13 14 16 15 14 17 18 19
18 20 19 17 22 29 25 29 35 26 27 32 36 48 40 38 31 28 24 22 17 15 15 13 15 18 19 18 16 16 21 24
12 21 23 27 30 31 28 35 32 28 31 32 46 50 43 36 30 28 24 22 19 15 16 18 20 21 20 18 18 19 21 25
9 14 16 20 17 27 27 32 35 33 31 34 39 50 40 37 34 28 26 26 22 19 17 20 24 22 20 21 19 21 21 21
11 11 15 15 21 28 33 34 32 32 31 43 43 42 47 37 37 29 26 29 24 21 23 23 25 26 26 24 22 24 22 22
13 14 14 12 22 29 31 33 22 28 42 37 45 42 46 39 42 30 30 28 24 25 23 22 21 23 24 25 25 28 29 27
15 17 14 8 15 28 40 38 30 33 45 37 33 34 47 48 41 32 31 29 27 26 24 23 21 25 28 27 30 32 25 26
16 14 15 8 3 26 30 32 31 36 39 34 38 34 41 48 37 35 34 32 28 29 28 26 25 27 29 27 28 28 30 28
13 13 11 9 5 14 26 28 31 32 36 31 30 33 35 35 36 36 35 31 29 29 27 26 28 29 29 29 32 34 30 31
9 12 10 6 6 8 16 24 27 27 29 31 25 26 30 30 33 34 26 26 27 28 24 27 30 31 30 32 33 32 32 32
8 10 23 10 10 9 10 13 20 29 25 31 24 19 19 23 29 29 29 29 28 27 28 30 31 31 32 36 36 37 32 32
7 7 7 9 10 17 10 7 9 11 19 23 22 20 19 20 20 26 28 29 28 30 30 29 30 29 31 31 34 33 33 37
5 6 8 7 17 16 17 14 14 10 15 19 21 18 19 24 24 25 26 27 29 29 30 30 28 27 29 27 29 32 36 32
5 3 4 4 2 8 15 15 14 16 17 19 21 20 21 25 28 27 26 28 27 25 26 26 24 24 24 28 30 31 32 32
5 5 2 3 2 4 5 6 8 8 18 24 21 24 22 24 26 26 20 19 19 18 19 21 21 21 23 27 28 31 33 36
6 8 7 4 3 6 5 5 8 10 11 14 16 17 16 18 19 18 18 20 20 19 23 24 26 26 29 32 32 35 38 40
7 5 5 6 7 6 8 9 10 10 10 11 13 13 16 16 16 18 20 22 24 28 27 31 29 29 31 34 33 34 36 40
11 10 8 6 6 8 10 10 10 12 13 13 14 16 16 17 17 19 21 24 25 27 29 31 32 32 33 34 36 36 40 42
Wind_Direction
243 234 222 233 215 210 224 218 223 227 228 231 236 208 196 203 196 204 206 206 211 216 233 243 244 254 274 280 259 259 256 252
254 236 226 214 228 204 213 227 219 226 219 228 221 205 197 200 208 204 210 212 214 228 236 244 251 261 280 271 254 256 252 245
255 237 219 206 219 229 222 225 219 230 231 212 226 197 199 203 211 208 213 218 220 226 243 245 258 263 281 271 260 250 247 237
266 237 198 197 204 210 212 230 211 235 209 207 216 194 199 204 207 212 217 225 226 234 248 243 249 255 264 269 265 256 249 236
262 234 215 211 199 224 230 227 220 225 216 215 214 202 201 203 210 214 219 233 229 236 247 249 250 252 260 262 254 261 258 250
246 226 232 234 215 230 230 230 224 224 220 218 212 195 199 204 209 213 222 233 234 240 244 252 254 255 257 252 245 254 250 228
275 235 226 225 224 219 224 230 212 219 209 208 198 198 199 206 213 213 223 230 239 247 245 252 257 256 255 250 244 244 234 230
267 259 207 224 228 214 209 207 213 215 206 206 203 207 203 212 207 213 226 231 232 240 249 253 256 259 255 240 237 237 232 228
255 260 220 235 229 209 207 216 210 200 204 204 212 219 208 208 204 216 227 226 234 242 247 253 258 257 249 240 236 240 221 227
250 265 196 171 218 200 198 196 212 203 211 227 227 224 231 206 210 217 222 226 236 242 247 252 261 259 251 241 234 221 224 227
241 240 211 224 203 197 188 204 211 220 227 221 225 222 219 216 209 214 221 225 235 246 255 260 260 258 251 249 235 227 220 229
238 233 248 203 225 187 171 191 198 209 206 200 205 206 209 207 214 224 225 237 242 251 261 264 264 261 254 246 233 221 226 231
12 256 253 212 273 190 186 188 192 197 200 205 213 212 219 225 227 235 239 248 257 266 265 266 261 260 250 244 227 231 229 233
347 346 329 249 228 212 197 192 201 203 213 214 223 226 230 237 245 243 247 253 259 267 267 263 261 253 246 239 234 232 232 240
329 346 344 340 227 234 232 226 244 223 227 234 229 232 243 247 252 245 254 264 267 263 261 259 252 243 238 235 232 231 238 245
314 0 344 357 354 245 243 249 240 250 239 227 232 248 250 256 256 253 259 266 262 256 252 250 247 243 244 242 234 235 240 242
304 310 340 328 297 202 205 229 232 236 231 228 240 248 248 248 248 251 244 248 249 250 244 245 243 240 248 249 247 247 252 255
282 293 300 279 260 272 249 228 244 228 209 214 220 228 231 233 226 217 222 231 240 244 248 246 248 247 249 253 252 254 255 259
270 270 281 294 288 257 252 254 235 233 239 237 237 239 238 234 232 235 237 241 244 243 240 248 255 257 259 261 260 259 261 262
270 266 258 256 270 281 269 244 248 244 234 231 228 228 231 237 240 245 250 253 257 261 263 261 258 261 261 262 262 263 262 264
Height
5751 5751 5758 5762 5765 5766 5771 5775 5776 5782 5786 5790 5794 5798 5802 5808 5809 5810 5814 5818 5821 5820 5822 5823 5825 5827 5828 5827 5828 5829 5831 5833
5741 5744 5749 5755 5757 5754 5763 5770 5773 5778 5782 5784 5789 5793 5797 5802 5804 5807 5811 5815 5816 5816 5818 5819 5822 5823 5824 5824 5824 5826 5828 5830
5735 5735 5744 5749 5754 5754 5763 5766 5770 5773 5776 5781 5782 5785 5792 5797 5801 5805 5807 5811 5811 5810 5814 5816 5818 5820 5821 5821 5821 5823 5825 5826
5730 5729 5740 5745 5749 5754 5758 5758 5760 5768 5770 5774 5775 5781 5788 5793 5797 5801 5804 5807 5806 5808 5809 5812 5814 5816 5817 5819 5819 5820 5823 5824
5730 5731 5736 5740 5742 5747 5750 5754 5760 5762 5766 5768 5771 5776 5783 5788 5792 5797 5801 5802 5802 5804 5806 5807 5810 5812 5813 5814 5816 5818 5819 5821
5731 5730 5732 5732 5734 5742 5745 5751 5755 5757 5759 5762 5762 5772 5778 5783 5788 5793 5796 5797 5798 5800 5801 5803 5805 5807 5808 5810 5811 5813 5815 5816
5729 5728 5730 5732 5734 5737 5741 5745 5750 5751 5754 5756 5761 5768 5774 5779 5784 5789 5790 5793 5793 5794 5797 5799 5800 5802 5804 5806 5807 5808 5810 5813
5729 5727 5728 5729 5729 5732 5734 5741 5744 5747 5749 5753 5760 5764 5770 5774 5779 5783 5785 5787 5789 5790 5793 5795 5795 5797 5799 5801 5802 5804 5805 5807
5727 5726 5725 5724 5723 5724 5730 5736 5740 5742 5747 5751 5756 5761 5765 5769 5774 5777 5781 5784 5785 5786 5788 5791 5793 5794 5795 5796 5797 5799 5801 5804
5721 5722 5723 5723 5721 5721 5727 5731 5736 5740 5744 5749 5753 5757 5760 5765 5768 5773 5777 5780 5780 5782 5784 5786 5787 5788 5790 5790 5792 5794 5796 5798
5720 5722 5722 5722 5722 5722 5723 5729 5734 5738 5742 5746 5750 5753 5757 5761 5765 5770 5773 5775 5777 5778 5779 5781 5782 5783 5784 5785 5786 5788 5790 5793
5720 5722 5721 5722 5722 5723 5725 5727 5731 5733 5739 5745 5748 5751 5755 5758 5763 5767 5770 5772 5772 5773 5775 5775 5778 5779 5778 5779 5781 5783 5786 5789
5722 5722 5721 5722 5722 5724 5726 5728 5730 5733 5738 5743 5747 5749 5752 5756 5760 5763 5765 5767 5768 5768 5769 5770 5772 5772 5774 5774 5775 5777 5781 5784
5722 5721 5719 5720 5722 5723 5725 5729 5731 5733 5737 5741 5744 5747 5750 5753 5756 5758 5760 5761 5763 5764 5765 5764 5766 5766 5766 5768 5772 5776 5778 5779
5721 5721 5719 5718 5720 5722 5724 5726 5728 5731 5736 5738 5740 5743 5746 5749 5751 5753 5754 5756 5757 5758 5758 5759 5758 5759 5761 5765 5768 5772 5772 5774
5721 5720 5720 5720 5720 5721 5722 5724 5726 5728 5731 5734 5736 5738 5741 5743 5745 5746 5748 5750 5751 5751 5753 5755 5755 5758 5760 5761 5764 5766 5768 5770
5721 5720 5721 5721 5722 5722 5723 5724 5725 5726 5727 5730 5734 5736 5737 5739 5740 5742 5745 5746 5747 5748 5751 5752 5755 5757 5759 5758 5760 5762 5764 5765
5721 5721 5720 5720 5722 5723 5723 5723 5725 5726 5727 5729 5731 5733 5734 5736 5737 5740 5741 5744 5745 5746 5748 5749 5750 5752 5755 5754 5755 5755 5757 5757
5720 5721 5721 5720 5721 5723 5724 5725 5725 5726 5727 5729 5731 5732 5735 5735 5736 5737 5740 5741 5742 5743 5744 5745 5745 5746 5747 5748 5749 5749 5748 5750
5719 5719 5720 5721 5721 5721 5722 5723 5724 5725 5726 5727 5728 5730 5731 5734 5734 5735 5736 5737 5737 5738 5739 5739 5739 5740 5740 5740 5740 5742 5740 5739